Temperature
17 16 16 16 16 16 16 16 16 16 16 16 15 15 15 15 15 15 15 15 15 15 15 15 15 15 14 14 14 14 14 14 14 13 12 12 12 12 12 11 11 11 11
17 16 16 16 16 16 16 16 16 16 16 16 15 15 15 15 15 15 15 15 15 15 15 15 15 15 14 14 14 14 14 14 14 13 13 12 12 12 11 11 11 11 11
17 16 16 16 16 16 16 16 16 16 16 15 15 15 15 15 15 15 15 15 15 15 15 15 15 14 14 14 14 14 14 13 13 13 13 12 12 11 11 11 11 11 10
16 16 16 16 16 16 16 16 16 16 15 15 15 15 15 15 15 15 15 15 15 15 15 14 14 14 14 14 14 14 13 13 13 13 13 12 12 11 11 11 11 11 10
16 16 16 16 16 16 16 15 15 15 15 15 15 15 15 15 15 15 15 15 15 15 14 14 14 14 14 14 14 14 14 13 13 13 12 12 12 11 11 11 11 10 10
16 16 16 16 16 16 16 15 15 15 15 15 15 15 15 15 15 15 14 14 14 14 14 14 14 14 14 14 14 14 13 13 13 13 12 12 12 11 11 11 11 10 10
16 16 16 16 16 16 15 15 15 15 15 15 15 15 15 15 14 14 14 14 14 14 14 14 14 14 14 14 13 13 13 13 13 13 13 12 12 12 11 11 11 10 10
16 16 16 16 16 15 15 15 15 15 15 15 15 15 15 14 14 14 14 14 14 14 14 14 14 14 14 13 13 13 13 13 13 12 12 12 12 11 11 11 11 10 10
16 16 16 16 15 15 15 15 15 15 15 15 14 14 14 14 14 14 14 14 14 14 14 14 14 14 13 13 13 13 13 13 12 12 12 12 11 11 11 11 11 10 10
15 15 15 15 15 15 15 15 15 15 15 14 14 14 14 14 14 14 14 14 14 14 14 13 13 13 13 13 13 13 13 13 12 12 12 12 11 11 11 11 11 10 10
15 15 15 15 15 15 15 15 15 15 15 14 14 14 14 14 14 14 14 14 14 14 13 13 13 13 13 13 13 13 12 12 12 12 12 11 11 11 11 11 10 10 10
15 15 15 15 15 15 15 15 15 14 14 14 14 14 14 14 14 13 13 13 13 13 13 13 13 13 12 12 12 12 12 12 12 11 11 11 11 11 10 10 10 10 10
15 15 15 15 15 15 15 15 14 14 14 14 14 14 14 13 13 13 13 13 13 13 13 13 13 12 12 12 12 12 11 11 11 11 11 11 10 10 10 10 10 9 9
15 15 15 15 14 14 14 14 14 14 14 14 14 14 14 13 13 13 13 13 13 13 13 12 12 12 12 12 11 11 11 11 11 11 11 10 10 10 10 9 9 9 9
15 14 14 14 14 14 14 14 14 14 14 14 14 14 14 14 13 13 13 13 13 12 12 12 12 12 11 11 11 11 11 11 11 11 10 10 10 10 9 9 9 9 8
14 14 14 14 14 14 14 14 14 14 14 14 14 14 14 14 13 13 12 12 12 12 12 12 12 11 11 11 11 11 11 11 10 10 10 10 10 9 9 9 8 8 8
14 14 14 14 14 14 14 14 14 14 13 13 13 13 13 13 13 12 12 12 12 11 11 11 11 11 11 11 11 11 10 10 10 10 10 9 9 9 9 8 8 8 8
14 14 14 14 14 14 14 13 13 13 13 13 13 13 13 13 12 12 12 12 11 11 11 11 11 11 11 11 10 10 10 10 10 10 9 9 9 9 8 8 8 7 7
14 14 14 14 14 13 13 13 13 13 13 13 13 13 12 12 12 12 11 11 12 11 11 11 11 11 11 10 10 10 10 9 9 9 9 9 8 8 8 7 7 7 7
13 13 13 13 13 13 13 13 13 13 13 13 13 13 12 12 12 11 11 11 11 11 11 11 11 11 10 10 10 10 9 9 9 9 8 8 8 8 7 7 7 6 6
13 13 13 13 13 13 13 13 13 13 12 12 12 12 12 12 12 11 11 11 11 11 11 10 10 10 10 10 9 9 9 9 9 8 8 8 7 7 7 6 6 6 6
12 12 12 12 12 12 12 12 12 12 12 12 12 12 12 11 11 11 11 11 11 11 10 10 10 10 9 9 9 9 9 8 8 8 8 7 7 7 6 6 6 5 5
12 12 12 12 12 12 12 12 12 12 12 12 12 11 11 11 11 11 11 11 10 10 10 10 9 9 9 9 9 8 8 8 8 7 7 7 7 6 6 6 5 5 5
12 12 12 12 12 12 12 12 12 12 12 11 11 11 11 11 11 11 11 10 10 10 10 9 9 9 9 8 8 8 8 7 7 7 7 6 6 6 5 5 5 4 4
11 11 11 11 11 11 11 11 11 11 11 11 11 11 11 11 11 10 10 10 10 10 9 9 9 9 8 8 8 8 8 7 7 7 6 6 6 5 5 5 4 4 4
10 10 11 11 11 11 11 11 11 11 11 11 11 10 10 10 10 10 10 10 9 9 9 9 8 8 8 8 8 7 7 7 7 6 6 6 5 5 5 4 4 4 3
Wind_Speed
8 7 6 6 6 6 6 6 5 5 5 5 6 6 5 5 5 5 4 4 4 3 2 3 3 3 3 3 3 3 3 4 5 1 1 1 3 3 5 6 6 7 7
7 7 7 6 6 6 6 5 5 5 5 5 5 5 5 5 5 5 5 5 5 4 3 4 3 3 4 3 3 4 3 3 5 5 2 1 1 2 3 3 4 5 6
7 7 6 6 6 6 6 5 4 4 4 4 5 5 5 6 5 5 5 5 5 4 5 5 4 5 4 3 4 4 3 4 4 5 3 1 1 2 2 3 4 3 4
7 7 7 6 7 6 5 5 5 4 5 5 5 5 5 5 6 6 5 5 4 4 4 4 5 5 6 5 4 4 5 5 5 5 3 2 1 1 2 2 2 1 2
6 7 7 6 5 5 5 5 5 5 5 5 5 5 5 5 6 7 6 6 5 4 3 3 4 6 7 6 5 5 6 5 5 4 3 2 1 2 2 2 2 1 1
6 7 6 6 5 5 6 6 5 5 5 5 5 5 5 4 7 10 8 6 5 5 4 3 3 4 6 8 8 9 9 7 6 4 3 3 3 2 2 3 3 2 0
6 6 6 6 6 6 6 6 6 5 5 5 5 5 5 5 8 9 9 6 6 5 5 4 4 4 5 5 6 7 6 7 8 7 6 5 4 5 4 3 3 3 2
5 6 6 7 7 6 6 6 5 4 5 5 5 5 5 5 8 8 9 6 4 4 4 5 5 4 5 6 6 5 3 3 5 5 5 5 5 5 5 5 5 3 1
5 6 7 7 8 7 7 6 5 5 4 4 5 5 5 4 7 8 8 5 4 3 3 4 5 5 7 9 7 6 4 2 3 6 6 5 5 7 8 5 4 3 1
6 6 6 7 8 8 8 6 5 5 5 5 5 5 5 5 6 8 9 5 5 3 2 3 5 6 8 9 7 7 6 3 3 4 3 3 3 4 6 5 5 4 2
5 5 6 7 8 8 7 5 6 5 5 5 5 4 4 5 7 8 9 5 6 5 3 2 3 6 7 8 8 6 7 6 4 3 2 2 2 2 3 3 4 4 4
4 5 5 6 6 6 7 6 6 6 6 5 4 3 2 3 5 7 8 7 7 6 4 3 4 6 7 7 6 7 8 7 4 3 2 1 1 1 1 3 4 4 3
5 5 5 5 5 6 7 7 6 6 5 5 5 5 3 3 4 6 7 8 8 5 4 6 6 7 6 5 7 8 7 4 4 3 3 3 2 2 2 3 4 5 6
6 5 5 5 5 5 5 6 6 6 5 5 6 5 4 4 3 3 4 5 6 5 4 5 6 6 4 4 4 4 4 4 4 4 3 2 1 1 2 2 2 2 2
6 5 5 5 6 6 5 5 6 6 7 8 7 7 7 6 7 9 7 6 5 5 5 3 3 2 2 2 1 2 2 3 3 2 3 2 2 2 2 1 2 2 2
5 5 5 4 5 5 5 3 3 3 6 7 7 7 6 7 9 10 10 10 10 11 7 4 4 4 4 4 3 2 2 3 3 3 3 3 3 3 2 2 2 3 3
7 6 5 5 5 6 6 5 4 1 2 5 7 8 7 8 10 10 10 10 11 11 5 5 5 5 5 4 4 3 3 3 3 3 4 3 3 3 3 3 3 3 2
6 7 7 6 6 6 6 6 6 5 4 2 3 6 7 8 9 10 10 9 6 6 4 5 5 5 4 4 4 3 3 3 2 3 3 3 3 3 3 3 3 4 3
6 5 5 5 5 6 6 5 5 5 5 4 2 3 5 6 7 8 10 5 6 6 5 5 5 5 4 4 4 4 4 3 3 3 3 3 3 3 3 3 3 4 3
6 7 6 5 5 6 6 6 6 6 5 5 5 5 5 5 4 5 5 5 5 5 5 5 5 5 5 5 4 4 4 4 4 3 3 3 3 3 4 4 3 3 3
5 5 7 5 5 6 6 7 6 6 6 6 5 6 9 7 6 7 6 5 6 6 6 5 5 5 5 5 4 5 5 4 4 4 4 3 3 3 3 3 3 3 3
5 5 5 5 5 6 6 6 6 6 6 6 4 5 9 6 5 6 6 6 5 5 5 5 5 5 6 6 6 5 5 4 4 4 4 4 3 3 3 3 3 3 3
5 5 5 4 5 6 6 5 6 6 6 5 5 5 6 6 6 6 6 5 5 5 5 6 5 5 6 7 8 7 6 6 6 6 5 4 4 4 4 4 4 4 3
5 5 5 5 5 5 6 6 6 6 6 6 6 6 6 7 6 6 6 5 5 5 5 6 6 7 7 7 8 9 9 10 10 9 9 6 5 4 4 4 4 4 4
4 5 5 5 5 5 6 6 6 6 6 6 6 6 6 6 6 5 5 5 5 5 6 6 6 7 9 9 9 9 10 11 11 11 10 8 6 5 5 5 4 4 3
4 4 4 4 4 5 6 6 6 6 6 6 6 6 6 6 6 6 5 5 5 5 6 6 7 9 9 10 11 11 11 12 12 12 11 8 6 5 5 4 5 4 4
Wind_Direction
181 180 174 177 174 167 170 180 183 185 180 183 185 174 176 174 163 151 152 148 141 136 137 136 134 128 116 114 115 117 120 125 131 127 80 104 103 107 103 103 99 93 85
179 171 171 173 170 170 177 184 180 183 185 184 179 170 173 170 166 159 161 161 156 159 162 145 146 132 117 118 119 122 125 128 134 135 116 92 101 134 120 111 104 97 95
165 162 167 172 174 180 181 182 178 177 177 174 168 166 170 171 169 167 163 159 156 161 166 160 157 139 130 125 125 125 123 117 115 132 137 103 75 106 95 82 84 75 94
164 165 174 183 181 186 179 172 171 164 160 164 161 162 165 165 164 160 154 153 152 155 161 159 158 155 157 149 139 136 129 119 118 124 125 113 95 96 107 106 79 37 69
166 171 180 181 176 172 169 167 160 157 158 159 151 146 147 154 163 157 153 156 155 149 144 151 163 161 162 158 153 153 142 134 132 131 134 122 125 132 165 167 142 105 33
173 178 175 168 160 160 163 159 153 154 151 145 149 151 153 159 157 157 155 155 154 149 147 149 151 153 150 148 148 153 155 152 156 151 158 165 192 188 168 160 151 131 273
177 176 171 166 163 165 161 149 154 158 152 147 153 150 150 152 152 150 154 152 154 159 161 162 156 149 147 142 133 128 136 152 158 159 166 188 190 196 173 164 166 161 191
178 178 175 171 169 162 155 154 154 155 156 156 158 159 154 163 160 151 146 136 135 149 161 164 158 157 158 152 141 130 128 139 159 157 173 190 191 185 178 173 166 143 94
183 187 184 175 168 165 166 167 159 152 156 153 151 154 152 156 156 150 141 133 131 140 149 150 155 161 166 154 144 143 139 135 127 148 158 160 163 162 151 128 130 131 150
195 193 186 179 172 173 176 170 159 156 162 155 148 156 159 163 164 157 149 143 142 145 139 151 163 167 166 159 153 154 161 178 145 117 105 99 107 134 154 156 163 157 158
192 183 178 180 180 175 169 162 157 154 153 156 155 160 166 172 171 164 158 156 159 158 163 172 179 169 165 163 161 166 174 163 145 139 126 99 77 81 92 122 148 159 164
173 171 173 176 179 169 160 160 158 156 157 163 161 163 173 180 178 175 170 168 163 163 176 180 179 172 167 162 162 167 161 146 139 137 138 154 163 185 158 110 119 126 135
166 174 175 174 173 165 163 163 162 162 166 174 174 182 185 181 182 178 174 170 166 162 169 166 163 162 158 158 162 159 150 145 150 159 180 207 213 191 133 100 86 90 77
164 172 170 171 171 168 167 168 168 174 178 182 186 192 189 182 182 178 172 165 156 146 141 144 140 137 131 135 139 148 153 164 168 179 188 199 173 141 152 155 147 129 87
167 171 173 173 173 171 172 179 183 190 190 188 195 191 187 198 204 187 175 177 172 162 141 123 120 124 130 128 123 138 144 149 163 174 179 184 177 167 181 167 152 139 155
172 177 179 177 174 169 169 171 193 189 194 195 193 187 198 197 183 183 185 179 170 158 143 155 168 173 178 183 183 183 182 184 187 184 185 190 190 188 185 167 156 164 179
181 184 182 181 178 175 174 175 181 190 171 187 193 194 191 180 178 182 180 174 168 158 157 177 185 189 192 191 192 193 202 204 187 181 189 192 188 185 176 175 170 173 191
185 188 183 184 184 183 184 185 183 180 186 207 203 191 185 179 175 173 164 150 166 177 185 186 193 193 192 193 192 193 192 181 179 184 188 189 183 177 177 183 186 189 195
186 188 185 183 184 182 180 180 183 184 187 188 174 178 173 164 161 164 158 166 181 191 193 193 193 189 188 189 189 188 184 186 186 186 188 188 182 175 183 188 185 181 184
192 191 182 178 180 181 179 179 183 186 187 189 194 189 166 153 164 173 182 183 185 191 192 194 193 188 185 186 186 182 180 184 185 186 188 185 182 180 185 185 184 184 194
189 190 183 178 184 186 185 186 187 187 191 196 202 193 177 181 187 187 191 193 195 195 195 193 191 189 187 184 182 183 183 189 190 187 183 180 174 176 182 180 182 182 180
184 188 187 187 188 188 188 186 184 187 193 192 187 181 180 183 188 190 197 202 202 197 189 186 189 190 188 186 185 184 187 191 189 181 177 176 174 175 174 176 175 180 181
183 187 187 187 187 186 182 181 181 185 189 189 184 179 184 192 194 197 200 198 191 187 186 185 185 187 189 190 188 187 191 197 194 185 179 178 180 180 179 182 183 187 197
185 185 186 188 187 187 186 185 186 187 187 188 188 189 192 195 197 198 195 187 183 184 184 186 188 187 185 190 193 196 198 197 190 184 179 179 182 184 183 186 192 196 199
183 184 186 189 191 194 191 187 187 186 187 190 192 195 195 192 193 193 188 181 179 181 184 188 190 190 189 191 194 196 195 193 191 186 179 176 180 183 183 187 192 193 197
185 187 189 192 193 193 191 188 189 189 190 193 193 195 193 192 191 188 183 182 184 185 186 191 193 192 192 194 195 193 191 190 188 186 180 173 177 182 180 185 188 192 195
Height
1521 1523 1525 1527 1529 1531 1532 1534 1535 1537 1538 1539 1540 1541 1542 1544 1545 1546 1547 1548 1549 1549 1550 1550 1551 1552 1552 1553 1554 1555 1555 1556 1556 1557 1558 1559 1559 1559 1559 1559 1558 1557 1556
1519 1522 1524 1526 1528 1529 1531 1533 1534 1536 1537 1538 1539 1540 1541 1543 1544 1545 1546 1547 1548 1549 1549 1550 1551 1551 1552 1553 1554 1554 1555 1556 1556 1556 1558 1559 1559 1560 1560 1559 1559 1558 1557
1518 1520 1522 1524 1526 1528 1529 1531 1533 1534 1535 1536 1538 1539 1540 1541 1543 1544 1545 1546 1547 1548 1549 1550 1550 1551 1551 1552 1553 1554 1554 1555 1556 1557 1557 1558 1559 1560 1560 1560 1559 1559 1558
1516 1518 1520 1522 1524 1526 1528 1530 1531 1533 1534 1535 1536 1537 1539 1540 1541 1543 1544 1545 1546 1547 1548 1549 1550 1550 1551 1552 1553 1553 1554 1555 1556 1556 1557 1558 1559 1559 1559 1559 1559 1559 1558
1515 1517 1518 1520 1522 1524 1526 1528 1529 1531 1532 1534 1535 1536 1538 1539 1540 1541 1543 1544 1545 1546 1547 1548 1549 1550 1551 1551 1552 1553 1554 1554 1555 1556 1556 1557 1558 1558 1558 1559 1559 1558 1558
1513 1515 1517 1519 1520 1522 1524 1526 1528 1529 1531 1532 1533 1535 1536 1538 1539 1541 1542 1543 1545 1546 1547 1547 1548 1549 1550 1551 1552 1553 1553 1554 1554 1555 1556 1556 1556 1557 1558 1558 1558 1557 1557
1511 1513 1515 1517 1518 1520 1522 1524 1526 1527 1529 1530 1532 1533 1535 1536 1538 1539 1541 1542 1543 1545 1546 1546 1547 1548 1549 1550 1551 1552 1552 1553 1554 1555 1555 1555 1555 1556 1556 1556 1556 1556 1556
1509 1511 1513 1515 1516 1518 1520 1522 1524 1526 1527 1528 1530 1532 1533 1535 1536 1538 1539 1541 1542 1543 1544 1545 1546 1547 1548 1549 1550 1550 1551 1552 1552 1553 1554 1554 1555 1555 1555 1555 1555 1555 1555
1506 1508 1510 1512 1514 1516 1518 1520 1522 1523 1525 1527 1528 1530 1531 1533 1535 1536 1538 1539 1540 1541 1543 1543 1544 1545 1546 1547 1548 1549 1550 1550 1551 1552 1553 1553 1553 1553 1553 1553 1553 1553 1553
1504 1506 1508 1510 1512 1514 1515 1518 1519 1521 1523 1525 1527 1528 1530 1531 1533 1535 1536 1537 1538 1539 1540 1542 1543 1544 1545 1545 1546 1547 1548 1549 1550 1550 1551 1551 1551 1551 1551 1551 1551 1551 1551
1501 1503 1505 1508 1510 1511 1513 1516 1517 1519 1521 1523 1525 1527 1528 1530 1531 1533 1534 1535 1536 1537 1538 1539 1540 1541 1542 1543 1544 1545 1546 1547 1548 1548 1549 1549 1549 1549 1549 1549 1549 1549 1549
1499 1501 1503 1505 1507 1509 1511 1513 1515 1517 1519 1521 1523 1524 1526 1528 1529 1530 1532 1533 1534 1535 1536 1537 1538 1539 1540 1541 1542 1543 1544 1545 1545 1546 1546 1546 1547 1547 1547 1547 1547 1547 1547
1497 1498 1500 1502 1505 1507 1509 1510 1512 1514 1516 1518 1520 1521 1523 1525 1526 1528 1529 1530 1532 1533 1534 1535 1536 1537 1538 1539 1540 1541 1542 1542 1543 1543 1543 1544 1544 1544 1545 1545 1544 1544 1544
1494 1496 1497 1499 1501 1503 1506 1507 1509 1511 1513 1515 1517 1518 1520 1521 1523 1524 1526 1527 1528 1530 1531 1532 1533 1534 1535 1536 1537 1538 1539 1540 1540 1540 1541 1541 1541 1541 1541 1542 1541 1541 1541
1490 1493 1495 1496 1498 1500 1502 1504 1506 1508 1510 1511 1513 1515 1516 1517 1519 1521 1522 1523 1525 1526 1528 1529 1530 1530 1531 1532 1534 1535 1536 1536 1537 1537 1538 1538 1538 1538 1538 1538 1538 1538 1537
1487 1489 1491 1493 1495 1497 1499 1501 1504 1506 1507 1509 1511 1512 1513 1515 1516 1518 1519 1521 1522 1524 1525 1525 1526 1527 1528 1529 1530 1531 1532 1533 1533 1534 1534 1535 1535 1535 1534 1535 1534 1534 1534
1484 1486 1488 1489 1491 1493 1495 1497 1499 1502 1504 1505 1507 1508 1510 1511 1513 1514 1516 1517 1519 1520 1521 1521 1522 1523 1524 1525 1526 1527 1528 1529 1530 1530 1531 1531 1531 1531 1531 1531 1531 1531 1530
1480 1482 1484 1485 1487 1489 1491 1493 1495 1497 1499 1501 1503 1504 1506 1508 1509 1510 1512 1513 1514 1515 1516 1517 1518 1520 1521 1522 1523 1524 1524 1525 1526 1526 1527 1527 1527 1527 1527 1527 1527 1527 1527
1476 1478 1480 1481 1483 1485 1488 1490 1492 1494 1495 1497 1498 1500 1502 1503 1505 1506 1507 1508 1509 1510 1511 1513 1515 1516 1517 1518 1519 1520 1521 1521 1522 1522 1523 1523 1523 1524 1523 1523 1523 1523 1523
1472 1473 1475 1477 1479 1481 1483 1485 1488 1489 1491 1493 1494 1496 1497 1498 1499 1501 1502 1503 1504 1506 1507 1509 1510 1511 1513 1514 1515 1516 1516 1517 1518 1518 1519 1519 1520 1520 1520 1520 1519 1519 1519
1467 1469 1471 1473 1475 1477 1479 1481 1483 1485 1487 1488 1490 1491 1493 1494 1495 1496 1497 1499 1500 1501 1503 1505 1506 1507 1508 1509 1510 1511 1512 1513 1514 1514 1515 1515 1515 1515 1515 1515 1516 1516 1515
1462 1464 1466 1468 1470 1472 1474 1476 1478 1480 1482 1484 1485 1487 1488 1490 1491 1492 1493 1494 1496 1497 1499 1500 1502 1503 1504 1505 1506 1507 1508 1508 1509 1510 1510 1511 1511 1511 1511 1512 1512 1512 1512
1458 1460 1462 1463 1465 1467 1470 1471 1473 1475 1477 1479 1480 1482 1483 1484 1486 1487 1488 1490 1492 1493 1495 1496 1498 1499 1500 1501 1502 1503 1503 1504 1505 1506 1506 1507 1507 1507 1507 1508 1508 1508 1508
1453 1455 1457 1458 1460 1462 1464 1466 1468 1470 1472 1474 1476 1477 1478 1479 1481 1482 1484 1486 1487 1489 1491 1492 1493 1494 1495 1496 1497 1498 1499 1500 1501 1502 1502 1502 1503 1503 1503 1503 1504 1504 1504
1448 1450 1452 1454 1455 1457 1459 1461 1463 1465 1467 1469 1471 1472 1473 1475 1476 1478 1480 1481 1483 1484 1486 1487 1488 1490 1491 1492 1493 1494 1494 1495 1496 1497 1498 1498 1498 1499 1499 1499 1499 1500 1500
1444 1446 1447 1449 1451 1452 1454 1456 1457 1459 1461 1463 1465 1467 1469 1470 1471 1473 1475 1476 1478 1479 1481 1482 1484 1485 1486 1487 1488 1489 1490 1491 1492 1493 1493 1494 1494 1494 1495 1495 1495 1495 1495